Weather History for KOGA - January, 2014

Change the Weather History Date:

Monday, January 13, 2014

  Actual Average Record
Temperature  
Mean Temperature 36 °F -  
Max Temperature 53 °F 36 °F 65 °F (1987)
Min Temperature 19 °F 9 °F -15 °F (1963)
Degree Days  
Heating Degree Days 29    
Moisture  
Dew Point 20 °F    
Average Humidity 52    
Maximum Humidity 84    
Minimum Humidity 24    
Precipitation  
Precipitation 0.00 in - - ()
Sea Level Pressure  
Sea Level Pressure 29.83 in    
Wind  
Wind Speed 14 mph (WNW)    
Max Wind Speed 32 mph    
Max Gust Speed 40 mph    
Visibility 10 miles    
Events      
Averages and records for this station are not official NWS values.
T = Trace of Precipitation, MM = Missing Value Source: NWS Daily Summary

Daily Weather History Graph

Daily Weather History Graph

Search for Another Location

Airport or City:

Trip Planner

Search our weather history database for the weather conditions in past years. The results will help you decide how hot, cold, wet, or windy it might be!

Date:

Astronomy

Jan. 13, 2014 Rise Set
Actual Time 7:10 AM MST 4:41 PM MST
Civil Twilight 6:40 AM MST 5:11 PM MST
Nautical Twilight 6:06 AM MST 5:45 PM MST
Astronomical Twilight 5:33 AM MST 6:18 PM MST
Moon 2:58 PM MST (1/13) 5:01 AM MST (1/13)
Length of Visible Light 10h 31m
Length of Day
9h 30m
Waxing Gibbous, 95% of the Moon is Illuminated
Jan 13
Waxing Gibbous
Jan 15
Full
Jan 23
Last Quarter
Jan 30
New
Feb 6
First Quarter

Hourly Weather History & Observations

Time (MST) Temp. Windchill Dew Point Humidity Pressure Visibility Wind Dir Wind Speed Gust Speed Precip Events Conditions
12:15 AM 32.9 °F 23.2 °F 19.8 °F 59% 29.85 in 10.0 mi NW 13.8 mph - N/A   Clear
12:35 AM 32.9 °F 23.2 °F 19.2 °F 57% 29.85 in 10.0 mi NW 13.8 mph - N/A   Clear
12:55 AM 34.3 °F 23.9 °F 19.0 °F 54% 29.85 in 10.0 mi NW 17.3 mph 24.2 mph N/A   Clear
1:15 AM 33.8 °F 23.9 °F 19.4 °F 56% 29.86 in 10.0 mi WNW 15.0 mph 21.9 mph N/A   Clear
1:35 AM 32.7 °F 23.9 °F 19.9 °F 59% 29.86 in 10.0 mi WNW 11.5 mph - N/A   Clear
1:55 AM 33.4 °F 22.7 °F 20.1 °F 58% 29.87 in 10.0 mi WNW 17.3 mph - N/A   Clear
2:15 AM 34.2 °F 24.0 °F 20.3 °F 57% 29.88 in 10.0 mi NW 16.1 mph - N/A   Scattered Clouds
2:35 AM 33.8 °F 24.8 °F 20.1 °F 57% 29.88 in 10.0 mi NW 12.7 mph - N/A   Clear
2:55 AM 32.4 °F 23.5 °F 20.1 °F 61% 29.88 in 10.0 mi NW 11.5 mph - N/A   Clear
3:15 AM 32.0 °F 22.5 °F 20.1 °F 62% 29.88 in 10.0 mi WNW 12.7 mph - N/A   Clear
3:35 AM 25.3 °F 16.7 °F 19.0 °F 77% 29.87 in 10.0 mi West 8.1 mph - N/A   Clear
3:55 AM 25.5 °F 16.9 °F 19.4 °F 78% 29.88 in 10.0 mi WSW 8.1 mph - N/A   Clear
4:15 AM 24.1 °F 16.0 °F 18.9 °F 80% 29.87 in 10.0 mi WSW 6.9 mph - N/A   Clear
4:35 AM 22.5 °F 15.1 °F 18.3 °F 84% 29.87 in 10.0 mi WSW 5.8 mph - N/A   Clear
4:55 AM 23.5 °F - 18.3 °F 80% 29.88 in 10.0 mi Calm Calm - N/A   Clear
5:15 AM 25.5 °F 15.5 °F 17.8 °F 72% 29.87 in 10.0 mi West 10.4 mph 16.1 mph N/A   Clear
5:35 AM 22.3 °F - 16.2 °F 77% 29.87 in 10.0 mi Calm Calm - N/A   Clear
5:55 AM 21.0 °F - 15.6 °F 80% 29.86 in 10.0 mi Calm Calm - N/A   Clear
6:15 AM 20.5 °F 15.6 °F 15.1 °F 80% 29.86 in 10.0 mi West 3.5 mph - N/A   Clear
6:35 AM 19.9 °F 12.1 °F 14.4 °F 79% 29.85 in 10.0 mi West 5.8 mph - N/A   Clear
6:55 AM 20.3 °F 13.8 °F 14.5 °F 78% 29.85 in 10.0 mi West 4.6 mph - N/A   Clear
7:15 AM 20.7 °F 11.9 °F 15.3 °F 80% 29.85 in 10.0 mi WSW 6.9 mph - N/A   Clear
7:35 AM 20.3 °F - 14.7 °F 79% 29.85 in 10.0 mi Calm Calm - N/A   Clear
7:55 AM 19.8 °F 11.9 °F 14.9 °F 81% 29.85 in 10.0 mi WSW 5.8 mph - N/A   Clear
8:15 AM 22.5 °F 11.7 °F 16.3 °F 77% 29.86 in 10.0 mi WSW 10.4 mph - N/A   Clear
8:35 AM 25.3 °F 16.7 °F 18.0 °F 74% 29.86 in 10.0 mi SW 8.1 mph - N/A   Scattered Clouds
8:55 AM 27.9 °F 19.1 °F 20.3 °F 73% 29.87 in 10.0 mi West 9.2 mph - N/A   Scattered Clouds
9:15 AM 28.6 °F 22.4 °F 21.0 °F 73% 29.86 in 10.0 mi West 5.8 mph - N/A   Scattered Clouds
9:35 AM 29.7 °F 24.7 °F 21.9 °F 73% 29.86 in 10.0 mi West 4.6 mph - N/A   Scattered Clouds
9:55 AM 36.0 °F 28.0 °F 24.6 °F 63% 29.86 in 10.0 mi WSW 11.5 mph - N/A   Clear
10:15 AM 39.6 °F 32.5 °F 23.4 °F 52% 29.86 in 10.0 mi West 11.5 mph 16.1 mph N/A   Scattered Clouds
10:35 AM 44.4 °F 37.2 °F 21.7 °F 41% 29.84 in 10.0 mi West 16.1 mph 24.2 mph N/A   Mostly Cloudy
10:55 AM 46.9 °F - 19.8 °F 34% 29.84 in 10.0 mi WNW 24.2 mph 28.8 mph N/A   Scattered Clouds
11:15 AM 48.4 °F - 18.3 °F 30% 29.82 in 10.0 mi West 20.7 mph - N/A   Clear
11:35 AM 50.0 °F - 18.0 °F 28% 29.81 in 10.0 mi West 25.3 mph 32.2 mph N/A   Scattered Clouds
11:55 AM 50.4 °F - 17.6 °F 27% 29.79 in 10.0 mi West 26.5 mph 32.2 mph N/A   Mostly Cloudy
12:15 PM 51.3 °F - 17.1 °F 26% 29.79 in 10.0 mi WNW 25.3 mph 33.4 mph N/A   Overcast
12:35 PM 51.3 °F - 16.7 °F 25% 29.78 in 10.0 mi WNW 29.9 mph 36.8 mph N/A   Scattered Clouds
12:55 PM 51.8 °F - 17.2 °F 26% 29.78 in 10.0 mi WNW 32.2 mph 36.8 mph N/A   Clear
1:15 PM 52.0 °F - 17.4 °F 26% 29.77 in 10.0 mi WNW 28.8 mph 34.5 mph N/A   Clear
1:35 PM 52.5 °F - 17.8 °F 25% 29.77 in 10.0 mi WNW 25.3 mph 33.4 mph N/A   Scattered Clouds
1:55 PM 52.0 °F - 17.2 °F 25% 29.78 in 10.0 mi WNW 24.2 mph 34.5 mph N/A   Overcast
2:15 PM 52.9 °F - 17.4 °F 25% 29.77 in 10.0 mi NW 25.3 mph 31.1 mph N/A   Mostly Cloudy
2:35 PM 53.6 °F - 17.2 °F 24% 29.77 in 10.0 mi NW 26.5 mph 38.0 mph N/A   Scattered Clouds
2:55 PM 53.2 °F - 17.4 °F 24% 29.77 in 10.0 mi NW 24.2 mph 35.7 mph N/A   Mostly Cloudy
3:15 PM 51.8 °F - 17.6 °F 26% 29.78 in 10.0 mi NW 24.2 mph 33.4 mph N/A   Mostly Cloudy
3:35 PM 52.3 °F - 18.0 °F 26% 29.78 in 10.0 mi NW 18.4 mph 27.6 mph N/A   Scattered Clouds
3:55 PM 51.4 °F - 18.3 °F 27% 29.78 in 10.0 mi WNW 15.0 mph - N/A   Clear
4:15 PM 49.5 °F - 19.2 °F 30% 29.78 in 10.0 mi WNW 17.3 mph 21.9 mph N/A   Clear
4:35 PM 47.3 °F - 19.2 °F 33% 29.78 in 10.0 mi WNW 11.5 mph - N/A   Clear
4:55 PM 44.1 °F 38.6 °F 19.4 °F 37% 29.78 in 10.0 mi West 10.4 mph - N/A   Clear
5:15 PM 41.2 °F 35.0 °F 19.6 °F 42% 29.78 in 10.0 mi West 10.4 mph - N/A   Clear
5:35 PM 37.6 °F 31.0 °F 19.2 °F 48% 29.78 in 10.0 mi West 9.2 mph - N/A   Clear
5:55 PM 32.0 °F 24.2 °F 17.8 °F 56% 29.78 in 10.0 mi WSW 9.2 mph - N/A   Clear
6:15 PM 35.1 °F 25.5 °F 21.0 °F 57% 29.78 in 10.0 mi WNW 15.0 mph - N/A   Clear
6:35 PM 43.0 °F 35.1 °F 22.8 °F 45% 29.78 in 10.0 mi WNW 17.3 mph - N/A   Clear
6:55 PM 42.8 °F 34.5 °F 23.0 °F 46% 29.79 in 10.0 mi WNW 18.4 mph - N/A   Scattered Clouds
7:15 PM 42.8 °F 34.5 °F 23.0 °F 46% 29.79 in 10.0 mi West 18.4 mph - N/A   Clear
7:35 PM 43.3 °F 36.1 °F 23.0 °F 45% 29.80 in 10.0 mi West 15.0 mph 23.0 mph N/A   Scattered Clouds
7:55 PM 43.3 °F 35.2 °F 23.5 °F 46% 29.81 in 10.0 mi WNW 18.4 mph - N/A   Mostly Cloudy
8:15 PM 43.9 °F 37.2 °F 23.7 °F 45% 29.82 in 10.0 mi WNW 13.8 mph - N/A   Mostly Cloudy
8:35 PM 45.1 °F 37.3 °F 23.4 °F 42% 29.82 in 10.0 mi WNW 19.6 mph 24.2 mph N/A   Mostly Cloudy
8:55 PM 44.6 °F 36.4 °F 23.5 °F 44% 29.82 in 10.0 mi WNW 20.7 mph 26.5 mph N/A   Mostly Cloudy
9:15 PM 45.5 °F 37.8 °F 23.7 °F 42% 29.84 in 10.0 mi NW 19.6 mph 28.8 mph N/A   Mostly Cloudy
9:35 PM 45.0 °F 38.2 °F 23.9 °F 44% 29.83 in 10.0 mi NW 15.0 mph - N/A   Mostly Cloudy
9:55 PM 45.0 °F 37.6 °F 25.0 °F 46% 29.83 in 10.0 mi NW 17.3 mph - N/A   Scattered Clouds
10:15 PM 45.5 °F 36.3 °F 26.1 °F 47% 29.85 in 10.0 mi NW 27.6 mph 38.0 mph N/A   Mostly Cloudy
10:35 PM 45.9 °F 36.3 °F 28.6 °F 51% 29.86 in 10.0 mi NW 31.1 mph 40.3 mph N/A   Mostly Cloudy
10:55 PM 45.0 °F 36.2 °F 29.3 °F 54% 29.87 in 10.0 mi NW 24.2 mph 31.1 mph N/A   Mostly Cloudy
11:15 PM 45.0 °F 35.4 °F 29.1 °F 54% 29.88 in 10.0 mi WNW 28.8 mph 33.4 mph N/A   Mostly Cloudy
11:35 PM 43.2 °F 33.4 °F 30.7 °F 62% 29.88 in 10.0 mi WNW 26.5 mph 34.5 mph N/A   Mostly Cloudy
11:55 PM 41.7 °F 32.3 °F 31.6 °F 67% 29.88 in 10.0 mi WNW 21.9 mph 28.8 mph N/A   Scattered Clouds